| time (UTC) | temp F | wind direction | speed knots | gust knots | rain 1hr in | rain 24hr in | rain mn in | humidity % | barometer mb |
| 20260506002125 | 78 | 150 | 0.0 | 5.2 | 0.00 | 0.00 | 0.00 | 49 | 1012.1 |
| 20260506001150 | 78 | 61 | 0.0 | 3.5 | 0.00 | 0.00 | 0.00 | 50 | 1012.1 |
| 20260505235055 | 79 | 178 | 0.0 | 3.5 | 0.00 | 0.00 | 0.00 | 48 | 1012.3 |
| 20260505232930 | 79 | 44 | 0.0 | 2.6 | 0.00 | 0.00 | 0.00 | 48 | 1012.3 |
| 20260505231938 | 79 | 132 | 0.0 | 2.6 | 0.00 | 0.00 | 0.00 | 47 | 1012.3 |
| 20260505230914 | 79 | 26 | 0.0 | 3.5 | 0.00 | 0.00 | 0.00 | 49 | 1012.3 |
| 20260505225915 | 79 | 221 | 0.0 | 3.5 | 0.00 | 0.00 | 0.00 | 47 | 1012.3 |
| 20260505224935 | 79 | 6 | 0.0 | 1.7 | 0.00 | 0.00 | 0.00 | 48 | 1012.4 |
| 20260505222741 | 79 | 282 | 0.0 | 3.5 | 0.00 | 0.00 | 0.00 | 50 | 1012.5 |
| 20260505221714 | 79 | 72 | 0.0 | 6.1 | 0.00 | 0.00 | 0.00 | 48 | 1012.6 |
| 20260505220714 | 79 | 34 | 0.0 | 6.1 | 0.00 | 0.00 | 0.00 | 48 | 1012.7 |
| 20260505215726 | 79 | 0 | 0.0 | 3.5 | 0.00 | 0.00 | 0.00 | 49 | 1012.7 |
| 20260505214732 | 78 | 278 | 0.0 | 5.2 | 0.00 | 0.00 | 0.00 | 51 | 1012.8 |
| 20260505213748 | 78 | 19 | 0.0 | 5.2 | 0.00 | 0.00 | 0.00 | 50 | 1012.9 |
| 20260505212736 | 77 | 22 | 0.0 | 5.2 | 0.00 | 0.00 | 0.00 | 49 | 1013.0 |
| 20260505211747 | 77 | 61 | 0.0 | 6.1 | 0.00 | 0.00 | 0.00 | 50 | 1013.1 |
| 20260505210755 | 77 | 23 | 0.9 | 6.1 | 0.00 | 0.00 | 0.00 | 50 | 1013.1 |
| 20260505204644 | 76 | 35 | 0.0 | 5.2 | 0.00 | 0.00 | 0.00 | 50 | 1013.3 |
| 20260505203639 | 76 | 70 | 0.9 | 5.2 | 0.00 | 0.00 | 0.00 | 52 | 1013.3 |
| 20260505202635 | 76 | 23 | 0.9 | 5.2 | 0.00 | 0.00 | 0.00 | 51 | 1013.5 |
| 20260505201602 | 76 | 252 | 0.0 | 3.5 | 0.00 | 0.00 | 0.00 | 52 | 1013.5 |
| 20260505200558 | 76 | 49 | 0.0 | 5.2 | 0.00 | 0.00 | 0.00 | 52 | 1013.5 |
| 20260505195602 | 75 | 5 | 0.0 | 6.1 | 0.00 | 0.00 | 0.00 | 50 | 1013.6 |
| 20260505194624 | 74 | 98 | 0.0 | 6.1 | 0.00 | 0.00 | 0.00 | 54 | 1013.6 |
| 20260505193643 | 74 | 293 | 0.0 | 5.2 | 0.00 | 0.00 | 0.00 | 55 | 1013.7 |
| 20260505192635 | 74 | 57 | 0.0 | 5.2 | 0.00 | 0.00 | 0.00 | 51 | 1013.8 |
| 20260505191601 | 74 | 12 | 0.0 | 0.0 | 0.00 | 0.00 | 0.00 | 53 | 1013.8 |
| 20260505190609 | 73 | 297 | 0.0 | 4.3 | 0.00 | 0.00 | 0.00 | 54 | 1013.8 |
| 20260505183339 | 72 | 232 | 0.0 | 3.5 | 0.00 | 0.00 | 0.00 | 57 | 1014.0 |
| 20260505182317 | 71 | 35 | 0.0 | 3.5 | 0.00 | 0.00 | 0.00 | 58 | 1014.0 |
| 20260505181330 | 70 | 72 | 0.0 | 1.7 | 0.00 | 0.00 | 0.00 | 58 | 1014.0 |
| 20260505175141 | 69 | 42 | 0.0 | 1.7 | 0.00 | 0.00 | 0.00 | 60 | 1014.0 |
| 20260505174143 | 68 | 269 | 0.0 | 2.6 | 0.00 | 0.00 | 0.00 | 60 | 1014.0 |
| 20260505173132 | 68 | 311 | 0.0 | 3.5 | 0.00 | 0.00 | 0.00 | 61 | 1014.0 |
| 20260505172111 | 67 | 311 | 0.0 | 1.7 | 0.00 | 0.00 | 0.00 | 63 | 1013.9 |
| 20260505171045 | 67 | 82 | 0.0 | 1.7 | 0.00 | 0.00 | 0.00 | 62 | 1013.9 |
| 20260505170105 | 67 | 103 | 0.0 | 4.3 | 0.00 | 0.00 | 0.00 | 62 | 1013.9 |
| 20260505165032 | 66 | 159 | 0.0 | 2.6 | 0.00 | 0.00 | 0.00 | 64 | 1014.0 |
| 20260505164043 | 65 | 4 | 0.0 | 2.6 | 0.00 | 0.00 | 0.00 | 66 | 1013.9 |
| 20260505161943 | 62 | 50 | 0.0 | 0.0 | 0.00 | 0.00 | 0.00 | 70 | 1013.9 |
| 20260505160950 | 61 | 115 | 0.0 | 0.0 | 0.00 | 0.00 | 0.00 | 72 | 1013.9 |
| 20260505152924 | 58 | 166 | 0.0 | 0.9 | 0.00 | 0.00 | 0.00 | 79 | 1013.9 |
| 20260505151923 | 57 | 132 | 0.0 | 0.0 | 0.00 | 0.00 | 0.00 | 80 | 1014.0 |
| 20260505150856 | 57 | 133 | 0.0 | 0.0 | 0.00 | 0.00 | 0.00 | 81 | 1013.9 |
| 20260505123656 | 51 | 123 | 0.0 | 0.0 | 0.00 | 0.00 | 0.00 | 85 | 1013.2 |
| 20260505122641 | 51 | 129 | 0.9 | 2.6 | 0.00 | 0.00 | 0.00 | 88 | 1013.0 |
| 20260505121625 | 50 | 207 | 0.0 | 4.3 | 0.00 | 0.00 | 0.00 | 88 | 1013.1 |
| 20260505115504 | 51 | 218 | 0.0 | 0.0 | 0.00 | 0.00 | 0.00 | 88 | 1013.0 |
| 20260505114446 | 51 | 172 | 0.0 | 0.0 | 0.00 | 0.00 | 0.00 | 86 | 1013.0 |
| 20260505113445 | 52 | 250 | 0.0 | 0.0 | 0.00 | 0.00 | 0.00 | 86 | 1012.9 |
| 20260505111314 | 53 | 200 | 0.0 | 0.0 | 0.00 | 0.00 | 0.00 | 83 | 1012.9 |
| 20260505110322 | 55 | 147 | 0.0 | 2.6 | 0.00 | 0.00 | 0.00 | 81 | 1012.6 |
| 20260505102133 | 59 | 200 | 0.9 | 7.8 | 0.00 | 0.00 | 0.00 | 75 | 1012.5 |
| 20260505101105 | 60 | 212 | 3.5 | 7.8 | 0.00 | 0.00 | 0.00 | 72 | 1012.5 |
| 20260505100031 | 60 | 227 | 2.6 | 7.0 | 0.00 | 0.00 | 0.00 | 75 | 1012.3 |
| 20260505095027 | 60 | 199 | 0.0 | 1.7 | 0.00 | 0.00 | 0.00 | 75 | 1012.3 |
| 20260505094034 | 60 | 221 | 0.9 | 5.2 | 0.00 | 0.00 | 0.00 | 76 | 1012.2 |
| 20260505091906 | 60 | 271 | 0.0 | 4.3 | 0.00 | 0.00 | 0.00 | 76 | 1012.2 |
| 20260505090845 | 61 | 146 | 0.9 | 6.1 | 0.00 | 0.00 | 0.00 | 74 | 1012.1 |
| 20260505085846 | 60 | 235 | 0.9 | 0.9 | 0.00 | 0.00 | 0.00 | 75 | 1012.0 |
| 20260505083651 | 61 | 62 | 0.0 | 0.0 | 0.00 | 0.00 | 0.00 | 73 | 1011.9 |
| 20260505081447 | 62 | 248 | 1.7 | 6.1 | 0.00 | 0.00 | 0.00 | 72 | 1011.9 |
| 20260505080420 | 62 | 155 | 1.7 | 5.2 | 0.00 | 0.00 | 0.00 | 73 | 1011.8 |
| 20260505075353 | 62 | 174 | 0.0 | 4.3 | 0.00 | 0.00 | 0.00 | 73 | 1011.8 |
| 20260505074355 | 62 | 123 | 0.0 | 0.0 | 0.00 | 0.00 | 0.00 | 72 | 1011.8 |
| 20260505073416 | 62 | 224 | 0.0 | 0.0 | 0.00 | 0.00 | 0.00 | 72 | 1011.7 |
| 20260505072352 | 63 | 103 | 0.0 | 0.0 | 0.00 | 0.00 | 0.00 | 72 | 1011.8 |
| 20260505071334 | 62 | 143 | 0.0 | 3.5 | 0.00 | 0.00 | 0.00 | 73 | 1011.6 |
| 20260505070310 | 62 | 89 | 0.0 | 0.0 | 0.00 | 0.00 | 0.00 | 74 | 1011.6 |
| 20260505064214 | 62 | 30 | 0.0 | 0.9 | 0.00 | 0.00 | 0.00 | 73 | 1011.5 |
| 20260505063215 | 62 | 129 | 0.0 | 1.7 | 0.00 | 0.00 | 0.00 | 73 | 1011.5 |
| 20260505062200 | 62 | 146 | 0.0 | 3.5 | 0.00 | 0.00 | 0.00 | 73 | 1011.5 |
| 20260505061204 | 62 | 98 | 0.0 | 1.7 | 0.00 | 0.00 | 0.00 | 72 | 1011.5 |
| 20260505060138 | 62 | 44 | 0.0 | 0.0 | 0.00 | 0.00 | 0.00 | 72 | 1011.6 |
| 20260505053952 | 63 | 127 | 0.0 | 3.5 | 0.00 | 0.00 | 0.00 | 70 | 1011.5 |
| 20260505051804 | 64 | 67 | 0.0 | 0.9 | 0.00 | 0.00 | 0.00 | 67 | 1011.4 |
| 20260505041633 | 66 | 226 | 0.9 | 7.0 | 0.00 | 0.00 | 0.00 | 61 | 1011.0 |
| 20260505040604 | 65 | 203 | 0.0 | 4.3 | 0.00 | 0.00 | 0.00 | 60 | 1010.9 |
| 20260505035617 | 65 | 184 | 0.9 | 6.1 | 0.00 | 0.00 | 0.00 | 59 | 1010.6 |
| 20260505034601 | 66 | 208 | 0.0 | 3.5 | 0.00 | 0.00 | 0.00 | 56 | 1010.5 |
| 20260505032517 | 67 | 197 | 0.0 | 3.5 | 0.00 | 0.00 | 0.00 | 53 | 1010.3 |
| 20260505031527 | 67 | 120 | 0.0 | 3.5 | 0.00 | 0.00 | 0.00 | 53 | 1010.1 |
| 20260505030454 | 68 | 264 | 0.9 | 6.1 | 0.00 | 0.00 | 0.00 | 50 | 1010.1 |
| 20260505025513 | 69 | 197 | 0.0 | 0.0 | 0.00 | 0.00 | 0.00 | 51 | 1009.9 |
| 20260505024531 | 69 | 140 | 0.0 | 2.6 | 0.00 | 0.00 | 0.00 | 51 | 1009.8 |
| 20260505022411 | 71 | 231 | 0.0 | 5.2 | 0.00 | 0.00 | 0.00 | 49 | 1009.6 |
| 20260505021412 | 71 | 284 | 0.0 | 7.0 | 0.00 | 0.00 | 0.00 | 49 | 1009.6 |
| 20260505015215 | 73 | 225 | 0.9 | 8.7 | 0.00 | 0.00 | 0.00 | 46 | 1009.4 |
| 20260505014142 | 74 | 278 | 0.9 | 6.1 | 0.00 | 0.00 | 0.00 | 46 | 1009.4 |
| 20260505013107 | 75 | 76 | 0.0 | 7.0 | 0.00 | 0.00 | 0.00 | 44 | 1009.3 |
| 20260505012133 | 76 | 257 | 0.0 | 7.0 | 0.00 | 0.00 | 0.00 | 44 | 1009.4 |
| 20260505004811 | 78 | 224 | 0.0 | 5.2 | 0.00 | 0.00 | 0.00 | 40 | 1009.5 |
| 20260505003817 | 78 | 349 | 0.9 | 4.3 | 0.00 | 0.00 | 0.00 | 38 | 1009.5 |